Location: Caltech
(34.1382°N, 118.1253°W)
Time: 16:47:09
(UTC-07:00)

Uribyol 2 - Visible Passes

Search period start: 19 October 2017 00:00
Search period end: 29 October 2017 00:00
Orbit: 783 x 796 km, 98.8° (Epoch: 19 October)

Date Brightness Start Highest point End Pass type
(mag) Time Alt. Az. Time Alt. Az. Time Alt. Az.
19 Oct ? 03:58:54 10° NNE 04:01:00 23° NE 04:01:00 23° NE visible
19 Oct ? 05:39:07 10° NNW 05:41:42 19° NW 05:41:42 19° NW visible
20 Oct ? 03:30:08 10° NE 03:30:48 12° NE 03:30:48 12° NE visible
20 Oct ? 05:08:39 10° N 05:11:30 28° NNW 05:11:30 28° NNW visible
21 Oct ? 04:38:42 10° N 04:41:19 30° N 04:41:19 30° N visible
22 Oct ? 04:09:11 10° NNE 04:11:08 23° NNE 04:11:08 23° NNE visible
22 Oct ? 05:50:01 10° NNW 05:51:50 15° NW 05:51:50 15° NW visible
23 Oct ? 03:40:09 10° NE 03:40:56 13° NE 03:40:56 13° NE visible
23 Oct ? 05:19:16 10° N 05:21:38 23° NNW 05:21:38 23° NNW visible
24 Oct ? 04:49:11 10° N 04:51:27 26° N 04:51:27 26° N visible
25 Oct ? 04:19:30 10° NNE 04:21:15 21° NNE 04:21:15 21° NNE visible
25 Oct ? 06:01:08 10° NW 06:01:57 12° NW 06:01:57 12° NW visible
26 Oct ? 03:50:17 10° NE 03:51:03 14° NE 03:51:03 14° NE visible
26 Oct ? 05:29:58 10° NNW 05:31:45 18° NNW 05:31:45 18° NNW visible
27 Oct ? 04:59:42 10° N 05:01:33 22° N 05:01:33 22° N visible
28 Oct ? 04:29:53 10° NNE 04:31:20 19° NNE 04:31:20 19° NNE visible
